[Iaude] MPEC F61: 2024 FW1 [a=1.45,e=0.32,i=3.6,H=28.3]
    mpec at cfa.harvard.edu 
    mpec at cfa.harvard.edu
       
    Thu Mar 21 07:10:03 EDT 2024
    
    
  
M.P.E.C. 2024-F61                                Issued 2024 March 21, 11:08 UT
     The Minor Planet Electronic Circulars contain information on unusual
         minor planets, routine data on comets and natural satellites,
         and occasional editorial announcements.  They are published
    on behalf of Division F of the International Astronomical Union by the
          Minor Planet Center, Smithsonian Astrophysical Observatory,
                          Cambridge, MA 02138, U.S.A.
			  
             Prepared using the Tamkin Foundation Computer Network
                              MPC at CFA.HARVARD.EDU
            URL https://www.minorplanetcenter.net/    ISSN 1523-6714
                                    2024 FW1                                    
Observations:
     K24F01W  C2024 03 19.37796013 16 18.254+20 01 03.15         19.37GVEF061F51
     K24F01W*HC2024 03 19.39459813 15 57.810+19 46 33.30         20.30GVEF061V00
     K24F01W HC2024 03 19.40023213 16 03.560+19 42 13.00               VEF061V00
     K24F01W HC2024 03 19.40583313 16 09.380+19 37 51.80               VEF061V00
     K24F01W HC2024 03 19.41144713 16 15.170+19 33 28.80               VEF061V00
     K24F01W KC2024 03 19.48151513 17 28.082+18 38 50.64         19.24GVEF061I52
     K24F01W KC2024 03 19.48199013 17 28.590+18 38 28.50         19.49GVEF061I52
     K24F01W KC2024 03 19.48246613 17 29.090+18 38 06.36         19.55GVEF061I52
     K24F01W KC2024 03 19.48295013 17 29.605+18 37 43.50         19.74GVEF061I52
     K24F01W KC2024 03 19.90582813 26 53.33 +13 26 23.1          19.6 GVEF061104
     K24F01W KC2024 03 19.91033513 26 57.57 +13 23 17.7          19.2 GVEF061104
     K24F01W KC2024 03 19.92085113 27 07.44 +13 16 03.4          19.1 GVEF061104
     K24F01W IC2024 03 19.96115813 27 41.94 +12 48 17.8          19.7 GVEF061L01
     K24F01W KC2024 03 19.96455813 27 44.97 +12 45 57.5          19.5 GVEF061L01
     K24F01W IC2024 03 19.96866413 27 48.62 +12 43 08.6          19.4 GVEF061L01
     K24F01W KC2024 03 19.97196913 27 51.47 +12 40 53.6          19.4 GVEF061L01
     K24F01W KC2024 03 21.25697413 47 00.91 +00 08 12.4          20.2 GVEF061H21
     K24F01W KC2024 03 21.25977313 47 02.43 +00 06 50.2          20.1 GVEF061H21
     K24F01W KC2024 03 21.26878213 47 07.27 +00 02 26.1          20.1 GVEF061H21
Observer details:
104 San Marcello Pistoiese.  Observers P. Bacci, M. Maestripieri.  Measurers
    P. Bacci, L. Tesi, G. Fagioli.  0.60-m F4 Reflector + CCD.
F51 Pan-STARRS 1, Haleakala.  Observers J. Herman, T. Lowe, P. Minguez, A.
    Schultz, I. Smith.  Measurers K. Chambers, T. de Boer, J. Fairlamb, H.
    Gao, M. Huber, C.-C. Lin, E. Magnier, Y. Ramanjooloo, R. Wainscoat, R.
    Weryk.  1.8-m Ritchey-Chretien + CCD.
H21 Astronomical Research Observatory, Westfield.  Observer R. Holmes.
    Measurers T. Linder, R. Holmes, L. Horn.  0.76-m f/3.0 astrograph + CCD.
I52 Steward Observatory, Mt. Lemmon Station.  Observer R. A. Kowalski.
    Measurers T. Beuden, V. F. Carvajal, D. Fay, J. B. Fazekas, D. C. Fuls, A.
    R. Gibbs, A. D. Grauer, H. Groeller, J. K. Hogan, R. A. Kowalski, S. M.
    Larson, G. J. Leonard, D. Rankin, R. L. Seaman, F. C. Shelly, K. W.
    Wierzchos.  1.0-m prime focus + CCD.
L01 Visnjan Observatory, Tican.  Observer K. Korlevic.  1.0-m f/2.9 reflector
    + CCD.
V00 Kitt Peak-Bok.  Observers V. F. Carvajal, H. Groeller.  Measurers M. J.
    Brucker, C. E. Woodward, T. Beuden, V. F. Carvajal, D. Fay, J. B. Fazekas,
    D. C. Fuls, A. R. Gibbs, H. Groeller, J. K. Hogan, R. A. Kowalski, S. M.
    Larson, C. Lejoly, G. J. Leonard, R. A. Mastaler, R. S. McMillan, D.
    Rankin, R. L. Seaman, F. C. Shelly, K. W. Wierzchos.  2.25-m reflector +
    4x4K mosaic CCD.
Orbital elements:
2024 FW1                                                 Earth MOID = 0.0103 AU
Epoch 2024 Mar. 31.0 TT = JDT 2460400.5                 Veres                   
M  16.70182              (2000.0)            P               Q                  
n   0.56594453     Peri.  155.27578     -0.93168869     -0.36323867             
a   1.4475052      Node     3.43146     +0.32208377     -0.83077904             
e   0.3156940      Incl.    3.56451     +0.16798282     -0.42173909             
P   1.74           H   28.35          G   0.15           U   6                  
Residuals in seconds of arc
240319 F51  0.1-  0.0     240319 I52  0.0   0.1+    240319 L01  0.5+  0.4-
240319 V00 (0.6+  3.2-)   240319 I52  0.1-  0.2-    240319 L01  0.2-  0.1+
240319 V00  0.4-  0.2-    240319 104  0.3+  0.2-    240321 H21  0.1+  0.3-
240319 V00  0.1+  0.3+    240319 104  0.1-  0.3+    240321 H21  0.1+  0.2-
240319 V00  0.1-  0.4-    240319 104  0.1+  0.5-    240321 H21  0.3-  0.4+
240319 I52  0.1+  0.1+    240319 L01  0.4-  0.9+
240319 I52  0.1+  0.1+    240319 L01  0.0   0.1+
Ephemeris:
2024 FW1                 a,e,i = 1.45, 0.32, 4                   q = 0.9905
Date    TT    R. A. (2000) Decl.     Delta      r    Elong.  Phase     V
2024 02 20    03 32 13.4 +49 01 03   0.07463 0.9945    92.4    83.3    25.6
...
2024 03 06    04 09 30.2 +56 42 56   0.03537 0.9909    87.0    91.0    24.3
...
2024 03 14    07 35 34.4 +69 14 15   0.01533 0.9977   102.6    76.6    21.9
...
2024 03 20    13 28 08.4 +12 29 04   0.01182 1.0065   154.6    25.2    19.9
2024 03 21    13 43 32.0 +02 25 56   0.01348 1.0083   154.5    25.2    20.2
2024 03 22    13 54 59.7 -05 13 52   0.01550 1.0101   152.3    27.3    20.5
...
2024 03 28    14 27 31.5 -25 38 21   0.03073 1.0229   143.3    35.7    22.3
...
2024 04 05    14 39 16.2 -32 50 07   0.05338 1.0441   144.1    34.2    23.5
...
2024 04 20    14 39 00.7 -35 20 55   0.09971 1.0950   153.9    23.8    24.7
M. P. C. Staff               (C) Copyright 2024 MPC           M.P.E.C. 2024-F61
    
    
More information about the Iaude
mailing list